Home > Weather > Copenhagen > Past weeks

Flag for Denmark Weather for the Past 2 Weeks in Copenhagen, Denmark

Now
39 °F

Sprinkles. Partly sunny.


Feels Like: 30 °F
Forecast: 31 / 37 °F
Wind: 17 mph from West

Location: Koebenhavn-Kastrup Airport

Current Time: Feb 10, 2016 at 10:57:57 AM

Latest Report: Feb 10, 2016 at 10:20 AM


Visibility: N/A

Pressure: 29.06 "Hg

Humidity: 93%

Dew point: 37 °F

Location of CopenhagenLocation

Historic Weather in Copenhagen — Graph

°F

Copenhagen Temperature Yesterday

Maximum temperature yesterday: 43 °F (at 1:20 AM)
Minimum temperature yesterday: 39 °F (at 4:50 PM)
Average temperature yesterday: 41 °F

High & Low Weather Summary for the Past Weeks

 TemperatureHumidityPressure
High48 °F (Jan 27, 6:50 PM)100% (Jan 26, 11:50 PM)30.09 "Hg (Jan 26, 11:50 PM)
Low30 °F (Feb 4, 11:50 PM)57% (Jan 28, 12:20 PM)28.80 "Hg (Feb 10, 2:21 AM)
Average41 °F87%29.57 "Hg
* Reported Jan 26 9:20 AM — Feb 10 9:20 AM, Copenhagen, Weather by CustomWeather, © 2016

Note: Actual official high and low records may vary slightly from our data, if they occured in-between our weather recording intervals... More about our weather records

Advertising

Copenhagen Weather History for the Previous 24 Hours

 ConditionsComfort  
Time TempWeatherWind HumidityBarometerVisibility
9:20 AM
Wed, Feb 10
39 °FSprinkles. Partly sunny.13 mph93%29.06 "Hg6 mi
8:50 AM37 °FSprinkles. Partly sunny.16 mph100%29.03 "Hg6 mi
8:20 AM37 °FSprinkles. Partly sunny.20 mph93%29.00 "HgN/A
7:50 AM36 °FLight rain. Partly sunny.21 mph100%28.97 "HgN/A
7:20 AM34 °FLight rain. Passing clouds.20 mph100%28.94 "HgN/A
6:50 AM34 °FPassing clouds.22 mph100%28.91 "HgN/A
6:20 AM36 °FPassing clouds.22 mph93%28.88 "HgN/A
5:50 AM36 °FPassing clouds.17 mph93%28.85 "HgN/A
5:20 AM36 °FSprinkles. Passing clouds.16 mph93%28.82 "HgN/A
4:50 AM36 °FSprinkles. Passing clouds.13 mph93%28.82 "HgN/A
4:20 AM37 °FSprinkles. Passing clouds.15 mph93%28.80 "HgN/A
3:50 AM37 °FSprinkles. Passing clouds.17 mph100%28.80 "HgN/A
3:20 AM39 °FSprinkles. Passing clouds.6 mph100%28.80 "HgN/A
2:50 AM39 °FRain. Passing clouds.5 mph100%28.80 "Hg5 mi
2:21 AM39 °FRain. Passing clouds.12 mph100%28.80 "Hg5 mi
1:20 AM39 °FRain. Passing clouds.15 mph93%28.82 "Hg4 mi
12:50 AM39 °FRain. Passing clouds.15 mph100%28.85 "Hg4 mi
12:20 AM39 °FRain. Passing clouds.13 mph93%28.88 "Hg4 mi
11:51 PM
Tue, Feb 9
39 °FRain. Passing clouds.13 mph93%28.91 "Hg5 mi
11:20 PM39 °FLight rain. Passing clouds.10 mph93%28.91 "Hg5 mi
10:20 PM39 °FLight rain. Passing clouds.8 mph93%28.97 "HgN/A
9:50 PM39 °FPassing clouds.8 mph87%29.00 "HgN/A
9:20 PM41 °FPassing clouds.8 mph81%29.00 "HgN/A
8:50 PM41 °FPartly cloudy.9 mph87%29.03 "HgN/A
8:20 PM41 °FPartly cloudy.9 mph81%29.06 "HgN/A
7:50 PM41 °FPassing clouds.9 mph81%29.06 "HgN/A
7:20 PM39 °FClear.9 mph93%29.09 "Hg10 mi
6:50 PM39 °FPartly cloudy.9 mph87%29.09 "HgN/A
6:20 PM39 °FPartly cloudy.10 mph87%29.09 "HgN/A
5:50 PM39 °FPartly cloudy.8 mph87%29.09 "HgN/A
5:20 PM39 °FPartly cloudy.8 mph87%29.12 "HgN/A
4:50 PM39 °FPartly sunny.9 mph87%29.12 "HgN/A
4:20 PM43 °FPartly sunny.14 mph71%29.12 "HgN/A
3:20 PM43 °FPartly sunny.16 mph81%29.12 "HgN/A
2:20 PM43 °FPartly sunny.21 mph81%29.12 "HgN/A
1:50 PM43 °FPartly sunny.20 mph81%29.12 "HgN/A
1:20 PM43 °FPartly sunny.22 mph81%29.12 "HgN/A
12:20 PM43 °FPartly sunny.23 mph87%29.15 "HgN/A
11:20 AM43 °FSprinkles. Partly sunny.25 mph87%29.12 "HgN/A
10:50 AM41 °FSprinkles. Partly sunny.21 mph93%29.12 "HgN/A
10:20 AM41 °FPartly sunny.21 mph93%29.12 "HgN/A
Weather by CustomWeather, © 2016

See weather overviewHow to use our weather pages